Time,TemperatureF,DewpointF,PressureIn,WindDirection,WindDirectionDegrees,WindSpeedMPH,WindSpeedGustMPH,Humidity,HourlyPrecipIn,Conditions,Clouds,dailyrainin,SoftwareType,DateUTC
2013-05-02 00:05:00,54.9,36.1,30.31,ESE,121,1.0,8.0,49,0.00,,,0.00,Wunderground v.1.15,2013-05-02 04:05:00,
2013-05-02 00:10:00,54.4,38.6,30.31,ESE,121,0.0,8.0,55,0.00,,,0.00,Wunderground v.1.15,2013-05-02 04:10:00,
2013-05-02 00:15:00,53.6,39.2,30.31,ESE,121,0.0,8.0,58,0.00,,,0.00,Wunderground v.1.15,2013-05-02 04:15:00,
2013-05-02 00:20:00,53.4,37.6,30.31,ESE,121,0.0,8.0,55,0.00,,,0.00,Wunderground v.1.15,2013-05-02 04:20:00,
2013-05-02 00:25:00,53.6,36.9,30.31,ESE,121,0.0,8.0,53,0.00,,,0.00,Wunderground v.1.15,2013-05-02 04:25:00,
2013-05-02 00:35:00,56.0,36.6,30.31,SSE,151,1.0,8.0,48,0.00,,,0.00,Wunderground v.1.15,2013-05-02 04:35:00,
2013-05-02 00:45:00,55.7,36.3,30.31,SSE,151,1.0,8.0,48,0.00,,,0.00,Wunderground v.1.15,2013-05-02 04:45:00,
2013-05-02 00:50:00,55.1,36.3,30.31,SSE,151,1.0,8.0,49,0.00,,,0.00,Wunderground v.1.15,2013-05-02 04:50:00,
2013-05-02 01:00:00,56.7,35.6,30.31,SE,135,2.0,8.0,45,0.00,,,0.00,Wunderground v.1.15,2013-05-02 05:00:00,
2013-05-02 01:05:00,58.1,35.1,30.31,SE,142,2.0,8.0,42,0.00,,,0.00,Wunderground v.1.15,2013-05-02 05:05:00,
2013-05-02 01:15:00,57.4,35.6,30.31,SE,144,1.0,8.0,44,0.00,,,0.00,Wunderground v.1.15,2013-05-02 05:15:00,
2013-05-02 01:25:00,56.2,35.7,30.31,SE,144,1.0,8.0,46,0.00,,,0.00,Wunderground v.1.15,2013-05-02 05:25:00,
2013-05-02 01:35:00,54.7,40.2,30.31,SE,144,1.0,8.0,58,0.00,,,0.00,Wunderground v.1.15,2013-05-02 05:35:00,
2013-05-02 01:45:00,50.9,40.3,30.31,SE,144,1.0,8.0,67,0.00,,,0.00,Wunderground v.1.15,2013-05-02 05:45:00,
2013-05-02 01:55:00,50.1,39.9,30.31,SE,144,1.0,8.0,68,0.00,,,0.00,Wunderground v.1.15,2013-05-02 05:55:00,
2013-05-02 02:05:00,51.9,37.1,30.31,SE,144,1.0,8.0,57,0.00,,,0.00,Wunderground v.1.15,2013-05-02 06:05:00,
2013-05-02 02:15:00,53.4,37.6,30.31,SE,124,2.0,8.0,55,0.00,,,0.00,Wunderground v.1.15,2013-05-02 06:15:00,
2013-05-02 02:25:00,54.1,37.3,30.31,SSE,148,3.0,8.0,53,0.00,,,0.00,Wunderground v.1.15,2013-05-02 06:25:00,
2013-05-02 02:35:00,54.7,36.9,30.31,ESE,109,3.0,8.0,51,0.00,,,0.00,Wunderground v.1.15,2013-05-02 06:35:00,
2013-05-02 02:45:00,55.2,36.9,30.31,ESE,119,2.0,8.0,50,0.00,,,0.00,Wunderground v.1.15,2013-05-02 06:45:00,
2013-05-02 02:54:00,51.8,37.9,30.31,ESE,119,1.0,8.0,59,0.00,,,0.00,Wunderground v.1.15,2013-05-02 06:54:00,
2013-05-02 03:00:00,51.8,37.9,30.31,ESE,119,0.0,8.0,59,0.00,,,0.00,Wunderground v.1.15,2013-05-02 07:00:00,
2013-05-02 03:10:00,50.6,38.1,30.31,ESE,119,1.0,8.0,62,0.00,,,0.00,Wunderground v.1.15,2013-05-02 07:10:00,
2013-05-02 03:20:00,49.8,39.3,30.32,ESE,119,1.0,1.0,67,0.00,,,0.00,Wunderground v.1.15,2013-05-02 07:20:00,
2013-05-02 03:25:00,50.1,38.4,30.32,ESE,119,0.0,8.0,64,0.00,,,0.00,Wunderground v.1.15,2013-05-02 07:25:00,
2013-05-02 03:35:00,49.5,38.2,30.32,SE,136,0.0,8.0,65,0.00,,,0.00,Wunderground v.1.15,2013-05-02 07:35:00,
2013-05-02 03:45:00,50.2,38.1,30.32,SSE,154,1.0,8.0,63,0.00,,,0.00,Wunderground v.1.15,2013-05-02 07:45:00,
2013-05-02 03:55:00,50.8,37.0,30.32,SSE,148,3.0,8.0,59,0.00,,,0.00,Wunderground v.1.15,2013-05-02 07:55:00,
2013-05-02 04:05:00,48.1,39.5,30.32,South,169,1.0,8.0,72,0.00,,,0.00,Wunderground v.1.15,2013-05-02 08:05:00,
2013-05-02 04:14:00,48.3,39.0,30.32,South,169,0.0,8.0,70,0.00,,,0.00,Wunderground v.1.15,2013-05-02 08:14:00,
2013-05-02 04:20:00,48.6,39.3,30.33,South,169,0.0,8.0,70,0.00,,,0.00,Wunderground v.1.15,2013-05-02 08:20:00,
2013-05-02 04:30:00,49.0,37.7,30.33,South,169,0.0,8.0,65,0.00,,,0.00,Wunderground v.1.15,2013-05-02 08:30:00,
2013-05-02 04:40:00,48.7,38.2,30.33,SSE,159,1.0,8.0,67,0.00,,,0.00,Wunderground v.1.15,2013-05-02 08:40:00,
2013-05-02 04:45:00,49.4,36.9,30.33,SSE,149,1.0,8.0,62,0.00,,,0.00,Wunderground v.1.15,2013-05-02 08:45:00,
2013-05-02 04:55:00,51.1,36.8,30.34,SE,136,3.0,8.0,58,0.00,,,0.00,Wunderground v.1.15,2013-05-02 08:55:00,
2013-05-02 05:05:00,51.0,37.2,30.34,SE,133,2.0,8.0,59,0.00,,,0.00,Wunderground v.1.15,2013-05-02 09:05:00,
2013-05-02 05:15:00,50.0,37.5,30.34,SSE,151,2.0,8.0,62,0.00,,,0.00,Wunderground v.1.15,2013-05-02 09:15:00,
2013-05-02 05:25:00,49.1,37.8,30.34,SSE,154,2.0,8.0,65,0.00,,,0.00,Wunderground v.1.15,2013-05-02 09:25:00,
2013-05-02 05:35:00,50.0,37.5,30.34,SSE,154,3.0,8.0,62,0.00,,,0.00,Wunderground v.1.15,2013-05-02 09:35:00,
2013-05-02 05:40:00,50.7,36.9,30.35,SSE,155,4.0,4.0,59,0.00,,,0.00,Wunderground v.1.15,2013-05-02 09:40:00,
2013-05-02 05:50:00,49.9,37.4,30.35,SSE,167,1.0,8.0,62,0.00,,,0.00,Wunderground v.1.15,2013-05-02 09:50:00,
2013-05-02 06:00:00,48.1,37.3,30.35,SSE,167,1.0,2.0,66,0.00,,,0.00,Wunderground v.1.15,2013-05-02 10:00:00,
2013-05-02 06:10:00,49.2,36.7,30.35,SSE,165,2.0,2.0,62,0.00,,,0.00,Wunderground v.1.15,2013-05-02 10:10:00,
2013-05-02 06:20:00,50.9,36.6,30.35,SSE,151,3.0,3.0,58,0.00,,,0.00,Wunderground v.1.15,2013-05-02 10:20:00,
2013-05-02 06:25:00,51.7,36.9,30.35,SSE,153,3.0,3.0,57,0.00,,,0.00,Wunderground v.1.15,2013-05-02 10:25:00,
2013-05-02 06:30:00,51.5,37.2,30.35,SSE,156,2.0,2.0,58,0.00,,,0.00,Wunderground v.1.15,2013-05-02 10:30:00,
2013-05-02 06:35:00,50.6,37.2,30.36,SSE,157,2.0,5.0,60,0.00,,,0.00,Wunderground v.1.15,2013-05-02 10:35:00,
2013-05-02 06:40:00,51.2,36.9,30.36,SSE,157,2.0,5.0,58,0.00,,,0.00,Wunderground v.1.15,2013-05-02 10:40:00,
2013-05-02 06:50:00,52.7,37.0,30.36,SSE,157,2.0,5.0,55,0.00,,,0.00,Wunderground v.1.15,2013-05-02 10:50:00,
2013-05-02 06:55:00,53.3,37.5,30.36,SSE,167,3.0,5.0,55,0.00,,,0.00,Wunderground v.1.15,2013-05-02 10:55:00,
2013-05-02 07:00:00,53.7,38.4,30.36,SSE,156,3.0,5.0,56,0.00,,,0.00,Wunderground v.1.15,2013-05-02 11:00:00,
2013-05-02 07:06:00,54.3,38.5,30.37,SSE,165,3.0,5.0,55,0.00,,,0.00,Wunderground v.1.15,2013-05-02 11:06:00,
2013-05-02 07:11:00,54.9,38.1,30.37,SE,131,3.0,5.0,53,0.00,,,0.00,Wunderground v.1.15,2013-05-02 11:11:00,
2013-05-02 07:16:00,55.5,38.6,30.37,SSE,148,3.0,5.0,53,0.00,,,0.00,Wunderground v.1.15,2013-05-02 11:16:00,
2013-05-02 07:21:00,55.7,39.3,30.37,SE,126,2.0,5.0,54,0.00,,,0.00,Wunderground v.1.15,2013-05-02 11:21:00,
2013-05-02 07:26:00,55.9,38.5,30.38,SE,126,3.0,5.0,52,0.00,,,0.00,Wunderground v.1.15,2013-05-02 11:26:00,
2013-05-02 07:31:00,56.1,38.7,30.38,ESE,123,3.0,3.0,52,0.00,,,0.00,Wunderground v.1.15,2013-05-02 11:31:00,
2013-05-02 07:41:00,56.7,39.7,30.38,SE,142,3.0,3.0,53,0.00,,,0.00,Wunderground v.1.15,2013-05-02 11:41:00,
2013-05-02 07:50:00,57.4,38.9,30.38,SSE,154,3.0,5.0,50,0.00,,,0.00,Wunderground v.1.15,2013-05-02 11:50:00,
2013-05-02 07:59:00,58.1,41.0,30.38,SSE,152,4.0,4.0,53,0.00,,,0.00,Wunderground v.1.15,2013-05-02 11:59:00,
2013-05-02 08:10:00,59.2,42.1,30.39,SSE,148,3.0,3.0,53,0.00,,,0.00,Wunderground v.1.15,2013-05-02 12:10:00,
2013-05-02 08:20:00,59.7,41.0,30.39,SE,144,4.0,4.0,50,0.00,,,0.00,Wunderground v.1.15,2013-05-02 12:20:00,
2013-05-02 08:29:00,60.4,41.7,30.39,SE,136,3.0,5.0,50,0.00,,,0.00,Wunderground v.1.15,2013-05-02 12:29:00,
2013-05-02 08:40:00,61.5,42.7,30.39,SSE,159,3.0,3.0,50,0.00,,,0.00,Wunderground v.1.15,2013-05-02 12:40:00,
2013-05-02 08:50:00,62.1,41.1,30.39,South,178,3.0,5.0,46,0.00,,,0.00,Wunderground v.1.15,2013-05-02 12:50:00,
2013-05-02 08:59:00,62.7,42.7,30.40,South,181,4.0,4.0,48,0.00,,,0.00,Wunderground v.1.15,2013-05-02 12:59:00,
2013-05-02 09:05:00,63.2,42.1,30.40,South,186,4.0,5.0,46,0.00,,,0.00,Wunderground v.1.15,2013-05-02 13:05:00,
2013-05-02 09:15:00,64.2,43.0,30.40,SE,135,4.0,5.0,46,0.00,,,0.00,Wunderground v.1.15,2013-05-02 13:15:00,
2013-05-02 09:24:00,64.9,42.5,30.40,SSW,204,3.0,6.0,44,0.00,,,0.00,Wunderground v.1.15,2013-05-02 13:24:00,
2013-05-02 09:30:00,65.4,42.9,30.40,South,182,4.0,4.0,44,0.00,,,0.00,Wunderground v.1.15,2013-05-02 13:30:00,
2013-05-02 09:40:00,66.3,44.9,30.40,SSE,160,3.0,5.0,46,0.00,,,0.00,Wunderground v.1.15,2013-05-02 13:40:00,
2013-05-02 09:49:00,66.8,42.3,30.40,SSW,199,4.0,4.0,41,0.00,,,0.00,Wunderground v.1.15,2013-05-02 13:49:00,
2013-05-02 10:00:00,67.3,39.4,30.40,SSE,157,5.0,6.0,36,0.00,,,0.00,Wunderground v.1.15,2013-05-02 14:00:00,
2013-05-02 10:10:00,67.9,42.7,30.40,SSE,158,5.0,5.0,40,0.00,,,0.00,Wunderground v.1.15,2013-05-02 14:10:00,
2013-05-02 10:19:00,68.5,41.9,30.40,SSE,152,5.0,8.0,38,0.00,,,0.00,Wunderground v.1.15,2013-05-02 14:19:00,
2013-05-02 10:25:00,68.6,40.6,30.40,SSE,164,6.0,8.0,36,0.00,,,0.00,Wunderground v.1.15,2013-05-02 14:25:00,
2013-05-02 10:35:00,69.4,43.4,30.39,ESE,104,5.0,6.0,39,0.00,,,0.00,Wunderground v.1.15,2013-05-02 14:35:00,
2013-05-02 10:44:00,70.0,41.8,30.39,SE,146,6.0,9.0,36,0.00,,,0.00,Wunderground v.1.15,2013-05-02 14:44:00,
2013-05-02 10:50:00,70.1,40.4,30.39,SSE,147,7.0,7.0,34,0.00,,,0.00,Wunderground v.1.15,2013-05-02 14:50:00,
2013-05-02 11:00:00,69.9,40.2,30.39,South,175,8.0,8.0,34,0.00,,,0.00,Wunderground v.1.15,2013-05-02 15:00:00,
2013-05-02 11:10:00,70.7,39.4,30.39,SSE,156,7.0,11.0,32,0.00,,,0.00,Wunderground v.1.15,2013-05-02 15:10:00,
2013-05-02 11:20:00,71.0,38.8,30.39,East,97,8.0,8.0,31,0.00,,,0.00,Wunderground v.1.15,2013-05-02 15:20:00,
2013-05-02 11:30:00,70.9,40.3,30.39,South,177,8.0,8.0,33,0.00,,,0.00,Wunderground v.1.15,2013-05-02 15:30:00,
2013-05-02 11:39:00,72.0,42.8,30.38,SSW,197,6.0,6.0,35,0.00,,,0.00,Wunderground v.1.15,2013-05-02 15:39:00,
2013-05-02 11:45:00,72.3,40.0,30.38,SE,135,6.0,10.0,31,0.00,,,0.00,Wunderground v.1.15,2013-05-02 15:45:00,
2013-05-02 11:55:00,72.3,37.4,30.38,SE,140,6.0,9.0,28,0.00,,,0.00,Wunderground v.1.15,2013-05-02 15:55:00,
2013-05-02 12:05:00,72.9,38.8,30.38,SSW,196,7.0,7.0,29,0.00,,,0.00,Wunderground v.1.15,2013-05-02 16:05:00,
2013-05-02 12:15:00,72.4,41.7,30.37,SSW,204,5.0,6.0,33,0.00,,,0.00,Wunderground v.1.15,2013-05-02 16:15:00,
2013-05-02 12:25:00,73.2,46.1,30.37,SE,142,5.0,6.0,38,0.00,,,0.00,Wunderground v.1.15,2013-05-02 16:25:00,
2013-05-02 12:34:00,73.0,45.9,30.36,East,96,5.0,5.0,38,0.00,,,0.00,Wunderground v.1.15,2013-05-02 16:34:00,
2013-05-02 12:45:00,73.1,46.0,30.36,SE,138,6.0,10.0,38,0.00,,,0.00,Wunderground v.1.15,2013-05-02 16:45:00,
2013-05-02 12:55:00,73.2,43.9,30.36,SE,134,5.0,6.0,35,0.00,,,0.00,Wunderground v.1.15,2013-05-02 16:55:00,
2013-05-02 13:04:00,73.2,44.6,30.36,SSE,165,6.0,9.0,36,0.00,,,0.00,Wunderground v.1.15,2013-05-02 17:04:00,
2013-05-02 13:10:00,73.2,43.1,30.35,ESE,119,6.0,6.0,34,0.00,,,0.00,Wunderground v.1.15,2013-05-02 17:10:00,
2013-05-02 13:20:00,73.5,42.6,30.35,SSE,159,7.0,7.0,33,0.00,,,0.00,Wunderground v.1.15,2013-05-02 17:20:00,
2013-05-02 13:29:00,73.8,44.4,30.35,South,190,6.0,6.0,35,0.00,,,0.00,Wunderground v.1.15,2013-05-02 17:29:00,
2013-05-02 13:40:00,73.8,41.3,30.34,SSE,167,7.0,7.0,31,0.00,,,0.00,Wunderground v.1.15,2013-05-02 17:40:00,
2013-05-02 13:50:00,74.3,44.1,30.34,SE,132,6.0,6.0,34,0.00,,,0.00,Wunderground v.1.15,2013-05-02 17:50:00,
2013-05-02 13:59:00,74.8,44.5,30.34,South,184,6.0,8.0,34,0.00,,,0.00,Wunderground v.1.15,2013-05-02 17:59:00,
2013-05-02 14:05:00,74.8,42.1,30.33,SE,146,6.0,8.0,31,0.00,,,0.00,Wunderground v.1.15,2013-05-02 18:05:00,
2013-05-02 14:15:00,75.1,40.7,30.34,SE,138,7.0,11.0,29,0.00,,,0.00,Wunderground v.1.15,2013-05-02 18:15:00,
2013-05-02 14:24:00,75.3,41.7,30.33,SE,144,7.0,8.0,30,0.00,,,0.00,Wunderground v.1.15,2013-05-02 18:24:00,
2013-05-02 14:30:00,74.9,43.8,30.33,SSW,199,7.0,7.0,33,0.00,,,0.00,Wunderground v.1.15,2013-05-02 18:30:00,
2013-05-02 14:40:00,75.2,43.3,30.33,East,93,8.0,8.0,32,0.00,,,0.00,Wunderground v.1.15,2013-05-02 18:40:00,
2013-05-02 14:49:00,75.5,44.4,30.32,ESE,117,6.0,9.0,33,0.00,,,0.00,Wunderground v.1.15,2013-05-02 18:49:00,
2013-05-02 15:00:00,75.6,45.2,30.32,SE,126,6.0,6.0,34,0.00,,,0.00,Wunderground v.1.15,2013-05-02 19:00:00,
2013-05-02 15:10:00,75.9,44.7,30.32,SSE,162,6.0,10.0,33,0.00,,,0.00,Wunderground v.1.15,2013-05-02 19:10:00,
2013-05-02 15:19:00,75.6,41.1,30.31,ENE,64,6.0,6.0,29,0.00,,,0.00,Wunderground v.1.15,2013-05-02 19:19:00,
2013-05-02 15:25:00,75.7,45.3,30.31,SSW,192,5.0,6.0,34,0.00,,,0.00,Wunderground v.1.15,2013-05-02 19:25:00,
2013-05-02 15:35:00,75.9,45.5,30.31,SSW,207,6.0,6.0,34,0.00,,,0.00,Wunderground v.1.15,2013-05-02 19:35:00,
2013-05-02 15:45:00,75.8,43.8,30.31,ESE,111,6.0,7.0,32,0.00,,,0.00,Wunderground v.1.15,2013-05-02 19:45:00,
2013-05-02 15:54:00,76.5,42.7,30.30,ESE,115,7.0,9.0,30,0.00,,,0.00,Wunderground v.1.15,2013-05-02 19:54:00,
2013-05-02 16:00:00,76.1,43.3,30.30,SSE,153,7.0,7.0,31,0.00,,,0.00,Wunderground v.1.15,2013-05-02 20:00:00,
2013-05-02 16:10:00,76.7,43.8,30.29,ESE,109,6.0,6.0,31,0.00,,,0.00,Wunderground v.1.15,2013-05-02 20:10:00,
2013-05-02 16:19:00,76.6,41.0,30.29,East,80,6.0,7.0,28,0.00,,,0.00,Wunderground v.1.15,2013-05-02 20:19:00,
2013-05-02 16:25:00,76.4,40.9,30.29,East,84,8.0,8.0,28,0.00,,,0.00,Wunderground v.1.15,2013-05-02 20:25:00,
2013-05-02 16:35:00,76.6,42.0,30.29,East,96,6.0,7.0,29,0.00,,,0.00,Wunderground v.1.15,2013-05-02 20:35:00,
2013-05-02 16:44:00,77.0,41.4,30.28,East,84,6.0,6.0,28,0.00,,,0.00,Wunderground v.1.15,2013-05-02 20:44:00,
2013-05-02 16:50:00,76.7,41.1,30.28,SE,141,6.0,6.0,28,0.00,,,0.00,Wunderground v.1.15,2013-05-02 20:50:00,
2013-05-02 17:00:00,76.8,43.0,30.28,SSE,148,6.0,10.0,30,0.00,,,0.00,Wunderground v.1.15,2013-05-02 21:00:00,
2013-05-02 17:10:00,76.7,41.1,30.28,SSE,148,8.0,8.0,28,0.00,,,0.00,Wunderground v.1.15,2013-05-02 21:10:00,
2013-05-02 17:20:00,76.5,41.0,30.28,ESE,106,6.0,7.0,28,0.00,,,0.00,Wunderground v.1.15,2013-05-02 21:20:00,
2013-05-02 17:30:00,76.5,40.0,30.27,ESE,103,6.0,6.0,27,0.00,,,0.00,Wunderground v.1.15,2013-05-02 21:30:00,
2013-05-02 17:39:00,76.6,42.8,30.27,East,94,6.0,6.0,30,0.00,,,0.00,Wunderground v.1.15,2013-05-02 21:39:00,
2013-05-02 17:45:00,76.5,40.0,30.27,SE,126,7.0,7.0,27,0.00,,,0.00,Wunderground v.1.15,2013-05-02 21:45:00,
2013-05-02 17:55:00,76.2,41.6,30.26,ESE,117,7.0,8.0,29,0.00,,,0.00,Wunderground v.1.15,2013-05-02 21:55:00,
2013-05-02 18:05:00,76.4,39.9,30.26,ESE,103,5.0,7.0,27,0.00,,,0.00,Wunderground v.1.15,2013-05-02 22:05:00,
2013-05-02 18:15:00,75.8,42.1,30.26,South,181,5.0,7.0,30,0.00,,,0.00,Wunderground v.1.15,2013-05-02 22:15:00,
2013-05-02 18:25:00,76.0,41.4,30.26,ESE,123,5.0,6.0,29,0.00,,,0.00,Wunderground v.1.15,2013-05-02 22:25:00,
2013-05-02 18:34:00,76.0,40.5,30.25,ESE,105,4.0,5.0,28,0.00,,,0.00,Wunderground v.1.15,2013-05-02 22:34:00,
2013-05-02 18:45:00,75.2,42.5,30.25,NNE,14,4.0,7.0,31,0.00,,,0.00,Wunderground v.1.15,2013-05-02 22:45:00,
2013-05-02 18:55:00,71.9,44.2,30.25,North,5,5.0,5.0,37,0.00,,,0.00,Wunderground v.1.15,2013-05-02 22:55:00,
2013-05-02 19:04:00,70.5,43.0,30.26,NE,38,5.0,7.0,37,0.00,,,0.00,Wunderground v.1.15,2013-05-02 23:04:00,
2013-05-02 19:10:00,70.3,43.5,30.26,NNE,30,6.0,6.0,38,0.00,,,0.00,Wunderground v.1.15,2013-05-02 23:10:00,
2013-05-02 19:20:00,69.7,42.9,30.26,NE,40,6.0,8.0,38,0.00,,,0.00,Wunderground v.1.15,2013-05-02 23:20:00,
2013-05-02 19:29:00,69.3,42.6,30.26,NNE,26,6.0,9.0,38,0.00,,,0.00,Wunderground v.1.15,2013-05-02 23:29:00,
2013-05-02 19:40:00,68.7,42.1,30.26,NE,35,7.0,7.0,38,0.00,,,0.00,Wunderground v.1.15,2013-05-02 23:40:00,
2013-05-02 19:50:00,67.9,42.0,30.26,NNE,33,5.0,6.0,39,0.00,,,0.00,Wunderground v.1.15,2013-05-02 23:50:00,
2013-05-02 19:59:00,67.4,41.6,30.26,NE,42,5.0,5.0,39,0.00,,,0.00,Wunderground v.1.15,2013-05-02 23:59:00,
2013-05-02 20:05:00,67.1,40.6,30.26,NE,44,5.0,5.0,38,0.00,,,0.00,Wunderground v.1.15,2013-05-03 00:05:00,
2013-05-02 20:15:00,66.5,40.8,30.26,NE,51,4.0,5.0,39,0.00,,,0.00,Wunderground v.1.15,2013-05-03 00:15:00,
2013-05-02 20:24:00,66.0,40.3,30.26,ENE,60,3.0,5.0,39,0.00,,,0.00,Wunderground v.1.15,2013-05-03 00:24:00,
2013-05-02 20:30:00,65.6,40.0,30.26,ENE,63,3.0,5.0,39,0.00,,,0.00,Wunderground v.1.15,2013-05-03 00:30:00,
2013-05-02 20:40:00,65.4,39.8,30.26,ESE,119,3.0,3.0,39,0.00,,,0.00,Wunderground v.1.15,2013-05-03 00:40:00,
2013-05-02 20:49:00,64.9,40.0,30.27,East,84,2.0,2.0,40,0.00,,,0.00,Wunderground v.1.15,2013-05-03 00:49:00,
2013-05-02 21:00:00,64.7,39.8,30.27,NE,53,3.0,5.0,40,0.00,,,0.00,Wunderground v.1.15,2013-05-03 01:00:00,
2013-05-02 21:10:00,64.5,39.6,30.27,ENE,71,2.0,5.0,40,0.00,,,0.00,Wunderground v.1.15,2013-05-03 01:10:00,
2013-05-02 21:19:00,64.1,40.5,30.27,East,82,2.0,2.0,42,0.00,,,0.00,Wunderground v.1.15,2013-05-03 01:19:00,
2013-05-02 21:25:00,64.0,40.4,30.27,ENE,57,2.0,5.0,42,0.00,,,0.00,Wunderground v.1.15,2013-05-03 01:25:00,
2013-05-02 21:35:00,63.1,40.2,30.27,ESE,105,1.0,5.0,43,0.00,,,0.00,Wunderground v.1.15,2013-05-03 01:35:00,
2013-05-02 21:44:00,63.4,41.1,30.27,ESE,121,2.0,5.0,44,0.00,,,0.00,Wunderground v.1.15,2013-05-03 01:44:00,
2013-05-02 21:55:00,62.0,41.0,30.27,ESE,121,1.0,5.0,46,0.00,,,0.00,Wunderground v.1.15,2013-05-03 01:55:00,
2013-05-02 22:05:00,62.2,40.6,30.26,ESE,118,2.0,5.0,45,0.00,,,0.00,Wunderground v.1.15,2013-05-03 02:05:00,
2013-05-02 22:14:00,62.7,41.0,30.26,ENE,74,1.0,5.0,45,0.00,,,0.00,Wunderground v.1.15,2013-05-03 02:14:00,
2013-05-02 22:20:00,61.3,43.0,30.26,East,96,1.0,1.0,51,0.00,,,0.00,Wunderground v.1.15,2013-05-03 02:20:00,
2013-05-02 22:30:00,56.9,44.8,30.26,ESE,111,1.0,5.0,64,0.00,,,0.00,Wunderground v.1.15,2013-05-03 02:30:00,
2013-05-02 22:39:00,58.2,41.1,30.26,ESE,111,1.0,1.0,53,0.00,,,0.00,Wunderground v.1.15,2013-05-03 02:39:00,
2013-05-02 22:45:00,59.7,41.0,30.26,SSE,155,1.0,2.0,50,0.00,,,0.00,Wunderground v.1.15,2013-05-03 02:45:00,
2013-05-02 22:55:00,57.1,43.8,30.25,SW,215,2.0,5.0,61,0.00,,,0.00,Wunderground v.1.15,2013-05-03 02:55:00,
2013-05-02 23:05:00,54.2,44.6,30.26,SSW,213,2.0,5.0,70,0.00,,,0.00,Wunderground v.1.15,2013-05-03 03:05:00,
2013-05-02 23:15:00,54.4,43.3,30.26,SSW,202,1.0,5.0,66,0.00,,,0.00,Wunderground v.1.15,2013-05-03 03:15:00,
2013-05-02 23:25:00,55.1,43.9,30.25,SSW,198,2.0,5.0,66,0.00,,,0.00,Wunderground v.1.15,2013-05-03 03:25:00,
2013-05-02 23:30:00,54.2,43.9,30.25,SSW,198,2.0,2.0,68,0.00,,,0.00,Wunderground v.1.15,2013-05-03 03:30:00,
2013-05-02 23:39:00,52.9,43.4,30.26,SSW,200,2.0,5.0,70,0.00,,,0.00,Wunderground v.1.15,2013-05-03 03:39:00,
2013-05-02 23:45:00,53.5,43.2,30.26,SSW,200,1.0,5.0,68,0.00,,,0.00,Wunderground v.1.15,2013-05-03 03:45:00,
2013-05-02 23:55:00,54.9,42.9,30.26,SSW,200,2.0,5.0,64,0.00,,,0.00,Wunderground v.1.15,2013-05-03 03:55:00,